Weather in Kazan

Russia / Republic of Tatarstan     55˚47′46″N   49˚06′31″E
temp.,
°C
wind,
m/s
gust,
m/s
humid.,
%
clouds,
%
prec.,
mm/h
press.,
hPa
HPBL,
m
30 november, mon
mon3000:00−2˚sse4996100 0.1 1045298
03:00−4˚se4995100 0.1 1045253
06:00−6˚se499268 0.0 1045233
09:00−7˚se4109149 0.0 1046281
12:00−5˚sse510899 0.0 1046360
15:00−7˚se410907 0.0 1046277
18:00−7˚sse5119010 0.0 1046283
21:00−8˚sse4118915 0.0 1046272
1 december, tue
tue100:00−8˚sse411900 0.0 1045269
03:00−9˚sse411900 0.0 1046253
06:00−9˚sse4118912 0.0 1045243
09:00−9˚sse4108938 0.0 1046285
12:00−7˚sse5108848 0.0 1044341
15:00−8˚sse4109126 0.0 1044265
18:00−10˚sse49906 0.0 1044197
21:00−11˚sse39913 0.0 1044183
2 december, wed
wed200:00−12˚s37900 0.0 1044167
03:00−13˚sse35910 0.0 1044116
06:00−14˚sse359231 0.0 1043118
09:00−14˚s369359 0.0 1043153
12:00−11˚s369185 0.0 1043220
15:00−13˚s239382 0.0 104371
18:00−14˚sse239272 0.0 104253
21:00−14˚s229271 0.0 104330
3 december, thu
thu300:00−15˚s129167 0.0 104320
03:00−14˚s229066 0.0 104428
06:00−15˚s129158 0.0 104320
09:00−14˚sse229278 0.0 104446
12:00−11˚s239397 0.0 1044141
15:00−13˚sse229491 0.0 104320
18:00−14˚sse229268 0.0 104320
21:00−14˚sse129160 0.0 104320
4 december, fri
fri400:00−14˚sse229028 0.0 104422
03:00−15˚sse229014 0.0 104320
06:00−15˚sse22870 0.0 104320
09:00−14˚sse22880 0.0 104432
12:00−11˚se22890 0.0 1044104
15:00−13˚sse22880 0.0 104420
18:00−14˚se22870 0.0 104421
21:00−14˚se22880 0.0 104420